Location: Chiroubles
(46.1812°N, 4.6660°E)
Time: 17:07:49
(UTC+00:00)

CARTOSAT-1 - Pass Details

Date: 15 August 2020
Orbit: 616 x 619 km, 97.8° (Epoch: 22 September)

Event Time Altitude Azimuth Distance (km) Brightness Sun altitude
Exits shadow 20:40:31 32° 111° (ESE) 1,081 4.3 -17.1°
Maximum altitude 20:41:50 40° 70° (ENE) 914 4.2 -17.3°
Drops below altitude 10° 20:45:54 10° 1° (N) 1,997 6.8 -17.8°
Sets 20:48:11 0° 354° (N) 2,908 7.8 -18.1°
